Huntsville Madison, AL

5:18 PM CDT on July 24, 2017 (GMT -0500)
Huntsville Madison

Weather History for KMDQ - December, 2012

Change the Weather History Date:

Tuesday, December 25, 2012

  Actual Average (KHSV) Record (KHSV)
Temperature  
Mean Temperature 43 °F -  
Max Temperature 51 °F 46 °F 77 °F (2016)
Min Temperature 35 °F 30 °F -1 °F (1983)
Degree Days  
Heating Degree Days 22    
Moisture  
Dew Point 43 °F    
Average Humidity 90    
Maximum Humidity 93    
Minimum Humidity 76    
Precipitation  
Precipitation 0.79 in - - ()
Sea Level Pressure  
Sea Level Pressure 29.85 in    
Wind  
Wind Speed 5 mph (NE)    
Max Wind Speed 17 mph    
Max Gust Speed 32 mph    
Visibility 4 miles    
Events Fog , Rain , Thunderstorm    
Averages and records for this station are not official NWS values.
T = Trace of Precipitation, MM = Missing Value Source: NWS Daily Summary

Daily Weather History Graph

Daily Weather History Graph

Search for Another Location

Airport or City:

Trip Planner

Search our weather history database for the weather conditions in past years. The results will help you decide how hot, cold, wet, or windy it might be!

Date:

Astronomy

Dec. 25, 2012 Rise Set
Actual Time 6:51 AM CST 4:41 PM CST
Civil Twilight 6:23 AM CST 5:09 PM CST
Nautical Twilight 5:52 AM CST 5:41 PM CST
Astronomical Twilight 5:21 AM CST 6:11 PM CST
Moon 2:47 PM CST (12/25) 4:25 AM CST (12/25)
Length of Visible Light 10h 45m
Length of Day
9h 49m
Waxing Gibbous, 94% of the Moon is Illuminated
Dec 25
Waxing Gibbous
Dec 28
Full
Jan 4
Last Quarter
Jan 11
New
Jan 18
First Quarter

Hourly Weather History & Observations

Time (CST) Temp. Windchill Dew Point Humidity Pressure Visibility Wind Dir Wind Speed Gust Speed Precip Events Conditions
12:15 AM 37.4 °F 34.9 °F 35.6 °F 93% 29.96 in 0.2 mi North 3.5 mph - N/A Fog Fog
12:35 AM 37.4 °F - 35.6 °F 93% 29.95 in 0.2 mi Calm Calm - N/A Fog Fog
12:55 AM 37.4 °F - 33.8 °F 87% 29.95 in 0.5 mi Calm Calm - N/A Fog Fog
1:15 AM 35.6 °F 32.8 °F 33.8 °F 93% 29.96 in 0.5 mi NNW 3.5 mph - N/A Fog Fog
1:35 AM 37.4 °F 32.8 °F 35.6 °F 93% 29.97 in 3.0 mi NNW 5.8 mph - N/A   Overcast
1:55 AM 41.0 °F 36.4 °F 37.4 °F 87% 29.96 in 4.0 mi North 6.9 mph - N/A   Mostly Cloudy
2:15 AM 44.6 °F 40.2 °F 41.0 °F 87% 29.97 in 4.0 mi North 8.1 mph - N/A   Mostly Cloudy
2:35 AM 44.6 °F 41.4 °F 42.8 °F 93% 29.99 in 1.8 mi North 5.8 mph - N/A   Overcast
2:55 AM 44.6 °F 42.2 °F 42.8 °F 93% 29.99 in 3.0 mi NNE 4.6 mph - N/A   Overcast
3:15 AM 44.6 °F 42.2 °F 42.8 °F 93% 29.98 in 2.5 mi NE 4.6 mph - N/A   Overcast
3:35 AM 44.6 °F 41.4 °F 42.8 °F 93% 29.98 in 3.0 mi NNE 5.8 mph - N/A   Overcast
3:55 AM 44.6 °F 43.1 °F 42.8 °F 93% 29.97 in 2.5 mi NNE 3.5 mph - N/A   Overcast
4:15 AM 44.6 °F - 42.8 °F 93% 29.97 in 2.5 mi Calm Calm - N/A   Overcast
4:55 AM 44.6 °F 42.2 °F 42.8 °F 93% 29.97 in 2.5 mi NE 4.6 mph - N/A   Overcast
5:15 AM 44.6 °F 41.4 °F 42.8 °F 93% 29.96 in 4.0 mi NNE 5.8 mph - N/A   Overcast
5:35 AM 44.6 °F 41.4 °F 42.8 °F 93% 29.97 in 5.0 mi NNE 5.8 mph - N/A   Overcast
5:55 AM 44.6 °F 42.2 °F 42.8 °F 93% 29.96 in 5.0 mi NNE 4.6 mph - N/A   Overcast
6:15 AM 44.6 °F - 42.8 °F 93% 29.97 in 5.0 mi Calm Calm - N/A   Overcast
6:35 AM 44.6 °F 42.2 °F 42.8 °F 93% 29.97 in 5.0 mi NE 4.6 mph - N/A   Overcast
6:55 AM 44.6 °F 43.1 °F 42.8 °F 93% 29.97 in 7.0 mi NE 3.5 mph - N/A   Overcast
7:15 AM 44.6 °F 41.4 °F 42.8 °F 93% 29.96 in 5.0 mi NE 5.8 mph - N/A   Overcast
7:35 AM 44.6 °F - 42.8 °F 93% 29.97 in 5.0 mi Calm Calm - N/A   Overcast
7:55 AM 44.6 °F 40.7 °F 42.8 °F 93% 29.98 in 1.5 mi North 6.9 mph - N/A   Overcast
8:15 AM 44.6 °F 41.4 °F 42.8 °F 93% 29.98 in 1.8 mi NNE 5.8 mph - N/A   Overcast
8:35 AM 44.6 °F 41.4 °F 42.8 °F 93% 29.98 in 1.5 mi North 5.8 mph - N/A   Overcast
8:55 AM 44.6 °F 41.4 °F 42.8 °F 93% 29.99 in 1.5 mi North 5.8 mph - N/A   Overcast
9:15 AM 44.6 °F 39.7 °F 41.0 °F 87% 29.99 in 1.0 mi North 9.2 mph - N/A   Overcast
9:35 AM 42.8 °F 40.1 °F 41.0 °F 93% 30.00 in 1.0 mi North 4.6 mph - N/A   Overcast
9:55 AM 42.8 °F 38.6 °F 41.0 °F 93% 30.01 in 1.0 mi North 6.9 mph - N/A   Overcast
10:15 AM 44.6 °F 40.7 °F 42.8 °F 93% 30.00 in 1.2 mi North 6.9 mph - N/A   Overcast
10:35 AM 44.6 °F 42.2 °F 42.8 °F 93% 29.99 in 1.2 mi NNE 4.6 mph - N/A   Overcast
10:55 AM 44.6 °F 41.4 °F 42.8 °F 93% 29.98 in 1.5 mi NNE 5.8 mph - N/A   Overcast
11:15 AM 44.6 °F 39.7 °F 42.8 °F 93% 29.95 in 1.8 mi North 9.2 mph - N/A   Overcast
11:35 AM 44.6 °F 40.2 °F 42.8 °F 93% 29.96 in 1.8 mi North 8.1 mph - N/A   Overcast
11:55 AM 44.6 °F 40.2 °F 42.8 °F 93% 29.94 in 2.0 mi North 8.1 mph - N/A   Overcast
12:15 PM 44.6 °F 41.4 °F 42.8 °F 93% 29.94 in 2.0 mi NNE 5.8 mph - N/A   Overcast
12:35 PM 44.6 °F 41.4 °F 42.8 °F 93% 29.92 in 2.5 mi NNE 5.8 mph - N/A   Overcast
12:55 PM 44.6 °F 40.7 °F 42.8 °F 93% 29.90 in 2.0 mi NNE 6.9 mph - N/A   Overcast
1:35 PM 46.4 °F 44.3 °F 44.6 °F 93% 29.89 in 2.5 mi North 4.6 mph - N/A   Overcast
1:55 PM 46.4 °F - 44.6 °F 93% 29.88 in 4.0 mi Calm Calm - N/A   Overcast
2:15 PM 46.4 °F - 44.6 °F 93% 29.89 in 4.0 mi Calm Calm - N/A Rain Rain
2:35 PM 46.4 °F - 44.6 °F 93% 29.91 in 2.0 mi Calm Calm - 0.01 in Rain Rain
2:55 PM 46.4 °F - 44.6 °F 93% 29.90 in 1.2 mi Calm Calm - 0.04 in Rain Rain
3:15 PM 46.4 °F - 44.6 °F 93% 29.89 in 1.0 mi Calm Calm - 0.03 in Rain Rain
3:35 PM 46.4 °F 45.2 °F 44.6 °F 93% 29.85 in 1.5 mi NE 3.5 mph - 0.04 in Rain Rain
3:55 PM 46.4 °F 44.3 °F 44.6 °F 93% 29.82 in 1.8 mi North 4.6 mph - 0.05 in Rain Rain
4:15 PM 48.2 °F - 44.6 °F 87% 29.80 in 3.0 mi Calm Calm - 0.01 in Rain Light Rain
4:55 PM 50.0 °F - 46.4 °F 87% 29.75 in 10.0 mi NE 5.8 mph - 0.01 in   Overcast
5:15 PM 50.0 °F - 46.4 °F 87% 29.73 in 10.0 mi East 6.9 mph - N/A   Overcast
5:35 PM 50.0 °F - 44.6 °F 82% 29.71 in 10.0 mi East 4.6 mph - N/A Rain Rain
5:55 PM 50.0 °F - 44.6 °F 82% 29.70 in 10.0 mi East 8.1 mph - 0.02 in Rain Rain
6:15 PM 50.0 °F - 44.6 °F 82% 29.72 in 7.0 mi East 9.2 mph - 0.02 in Rain Rain
6:35 PM 50.0 °F - 44.6 °F 82% 29.73 in 7.0 mi East 6.9 mph - 0.04 in Rain Heavy Rain
6:55 PM 50.0 °F - 46.4 °F 87% 29.72 in 4.0 mi Calm Calm - 0.06 in Rain Rain
7:15 PM 50.0 °F - 46.4 °F 87% 29.73 in 4.0 mi ESE 8.1 mph - 0.03 in Rain Heavy Rain
7:35 PM 50.0 °F - 46.4 °F 87% 29.75 in 4.0 mi WSW 8.1 mph - 0.05 in Rain Heavy Rain
7:55 PM 50.0 °F - 46.4 °F 87% 29.74 in 2.5 mi ESE 12.7 mph - 0.09 in Rain Heavy Rain
8:15 PM 50.0 °F - 46.4 °F 87% 29.73 in 4.0 mi SE 4.6 mph - 0.07 in Rain , Thunderstorm Heavy Thunderstorms and Rain
8:35 PM 50.0 °F - 46.4 °F 87% 29.67 in 5.0 mi ESE 13.8 mph 19.6 mph 0.14 in Rain , Thunderstorm Rain
8:55 PM 50.0 °F - 46.4 °F 87% 29.57 in 5.0 mi ESE 16.1 mph 32.2 mph 0.20 in Rain Light Rain
9:15 PM 51.8 °F - 46.4 °F 82% 29.57 in 10.0 mi ESE 13.8 mph 26.5 mph 0.05 in   Mostly Cloudy
9:35 PM 51.8 °F - 44.6 °F 76% 29.54 in 10.0 mi ESE 11.5 mph 29.9 mph 0.11 in   Scattered Clouds
10:15 PM 51.8 °F - 46.4 °F 82% 29.55 in 4.0 mi ESE 15.0 mph 28.8 mph 0.04 in Rain , Thunderstorm Heavy Thunderstorms and Rain
10:35 PM 51.8 °F - 46.4 °F 82% 29.52 in 10.0 mi ESE 13.8 mph 27.6 mph 0.08 in Rain Light Rain
10:55 PM 51.8 °F - 46.4 °F 82% 29.50 in 10.0 mi SE 10.4 mph 19.6 mph 0.12 in Rain Light Rain
11:15 PM 51.8 °F - 46.4 °F 82% 29.48 in 5.0 mi SE 8.1 mph 20.7 mph 0.03 in Rain Light Rain
11:35 PM 51.8 °F - 46.4 °F 82% 29.47 in 10.0 mi SE 17.3 mph 27.6 mph 0.06 in Rain Light Rain
11:55 PM 51.8 °F - 46.4 °F 82% 29.45 in 10.0 mi SE 13.8 mph 25.3 mph 0.09 in   Overcast